This demonstration page uses our WeatherBlox Daily Observations layout. Learn more.

Left ArrowRight Arrow

Hourly Observations for May 29, 2020

Temp ( °F °C ) Dew Point ( °F °C ) Humidity (%) Winds ( mph kmh ) Pressure ( in mb ) Visibility ( mi km ) Precip ( " mm )
12:53 am 00:53 Clear 69 20.6 66 18.9 90 90 N N/A 29.92 1013 10 16.0934 N/A
1:53 am 01:53 Mostly Clear 69 20.6 66 18.9 90 90 N N/A 29.91 1013 10 16.0934 N/A
2:53 am 02:53 Cloudy with Heavy Rain 69 20.6 67 19.4 93 93 WSW 6 9 29.91 1013 1.5 2.41401 0.07 1.778
3:01 am 03:01 Cloudy with Heavy Rain 68 20 67 19.4 96 96 WSW 13 20 29.92 1013 1 1.60934 0.13 3.302
3:06 am 03:06 Cloudy with Light Rain 67 19.4 65 18.3 93 93 W 6 9 29.92 1013 2 3.21868 0.13 3.302
3:13 am 03:13 Mostly Cloudy 67 19.4 65 18.3 93 93 VRB 3 6 29.92 1013 10 16.0934 0.13 3.302
3:53 am 03:53 Mostly Cloudy 65 18.3 65 18.3 100 100 N N/A 29.9 1013 10 16.0934 0.13 3.302
4:53 am 04:53 Mostly Clear 65 18.3 65 18.3 100 100 N N/A 29.9 1013 10 16.0934 N/A
5:53 am 05:53 Cloudy 65 18.3 64 17.8 97 97 N N/A 29.92 1013 10 16.0934 N/A
6:53 am 06:53 Sunny 65 18.3 65 18.3 100 100 N N/A 29.94 1014 10 16.0934 N/A
7:53 am 07:53 Mostly Cloudy 67 19.4 64 17.8 91 91 N N/A 29.96 1015 10 16.0934 N/A
8:53 am 08:53 Cloudy 69 20.6 65 18.3 87 87 SW 6 9 29.96 1015 10 16.0934 N/A
9:53 am 09:53 Mostly Cloudy 71 21.7 65 18.3 81 81 WSW 9 15 29.96 1015 10 16.0934 N/A
10:27 am 10:27 Mostly Cloudy 71 21.7 65 18.3 81 81 WSW 10 17 29.95 1014 10 16.0934 N/A
10:53 am 10:53 Mostly Cloudy 73 22.8 65 18.3 76 76 WSW 8 13 29.95 1014 10 16.0934 N/A
11:03 am 11:03 Partly Cloudy 73 22.8 66 18.9 79 79 WSW 8 13 29.94 1014 10 16.0934 N/A
11:53 am 11:53 Partly Cloudy 74 23.3 66 18.9 76 76 VRB 6 9 29.94 1014 10 16.0934 N/A
12:44 pm 12:44 Partly Cloudy with Nearby Thunderstorms 78 25.6 65 18.3 64 64 VRB 7 11 29.9 1013 10 16.0934 N/A
12:53 pm 12:53 Partly Cloudy with Nearby Thunderstorms 77 25 64 17.8 64 64 WSW 12 19 29.91 1013 10 16.0934 N/A
1:21 pm 13:21 Mostly Cloudy with Thunderstorms 70 21.1 61 16.1 73 73 W 10 17 29.93 1014 10 16.0934 N/A
1:35 pm 13:35 Cloudy with Light Thunderstorms 67 19.4 63 17.2 87 87 W 9 15 29.93 1013 1.75 2.816345 0.06 1.524
1:42 pm 13:42 Cloudy with Heavy Thunderstorms 66 18.9 63 17.2 90 90 WNW 9 15 29.92 1013 1 1.60934 0.1 2.54
1:53 pm 13:53 Cloudy with Nearby Thunderstorms 65 18.3 64 17.8 97 97 VRB 5 7 29.93 1014 1.25 2.011675 0.18 4.572
2:01 pm 14:01 Cloudy with Heavy Thunderstorms 66 18.9 65 18.3 96 96 N N/A 29.92 1013 1.25 2.011675 0.05 1.27
2:06 pm 14:06 Mostly Cloudy with Light Thunderstorms 68 20 67 19.4 96 96 SSW 5 7 29.92 1013 2 3.21868 0.05 1.27
2:13 pm 14:13 Partly Cloudy with Thunderstorms 71 21.7 69 20.6 94 94 SW 8 13 29.91 1013 10 16.0934 0.05 1.27
2:21 pm 14:21 Mostly Sunny 72 22.2 68 20 87 87 VRB 6 9 29.91 1013 10 16.0934 0.05 1.27
2:39 pm 14:39 Partly Cloudy with Nearby Thunderstorms 73 22.8 67 19.4 81 81 WSW 7 11 29.92 1013 10 16.0934 0.05 1.27
2:53 pm 14:53 Partly Cloudy with Nearby Thunderstorms 74 23.3 67 19.4 79 79 WSW 10 17 29.92 1013 10 16.0934 0.05 1.27
3:07 pm 15:07 Mostly Cloudy 73 22.8 66 18.9 79 79 WSW 6 9 29.92 1013 10 16.0934 N/A
3:14 pm 15:14 Mostly Cloudy with Nearby Thunderstorms 72 22.2 66 18.9 82 82 VRB 6 9 29.92 1013 10 16.0934 N/A
3:18 pm 15:18 Mostly Cloudy with Thunderstorms 72 22.2 66 18.9 82 82 WSW 7 11 29.93 1014 10 16.0934 N/A
3:32 pm 15:32 Cloudy with Nearby Thunderstorms 70 21.1 66 18.9 87 87 WNW 10 17 29.94 1014 8 12.87472 0.001 0.001
3:37 pm 15:37 Cloudy with Light Rain 69 20.6 66 18.9 90 90 WNW 12 19 29.94 1014 7 11.26538 0.01 0.254
3:51 pm 15:51 Cloudy with Light Rain 68 20 66 19 94 94 W 8 13 29.96 1014 8 12.87472 0.01 0.254
3:53 pm 15:53 Cloudy with Light Rain 68 20 66 18.9 93 93 W 9 15 29.96 1015 8 12.87472 0.01 0.254
4:53 pm 16:53 Mostly Sunny 69 20.6 64 17.8 84 84 NW 12 19 29.95 1014 10 16.0934 0.02 0.508
5:53 pm 17:53 Cloudy 70 21.1 62 16.7 76 76 NW 8 13 29.96 1015 10 16.0934 N/A
6:53 pm 18:53 Cloudy 72 22.2 54 12.2 53 53 NW 7 11 29.98 1015 10 16.0934 N/A
7:53 pm 19:53 Sunny 70 21.1 56 13.3 61 61 NNW 5 7 29.99 1016 10 16.0934 N/A
8:53 pm 20:53 Mostly Sunny 64 17.8 60 15.6 87 87 N N/A 30.01 1016 10 16.0934 N/A
9:53 pm 21:53 Clear 62 16.7 59 15 90 90 N N/A 30.02 1017 10 16.0934 N/A
10:53 pm 22:53 Clear 61 16.1 60 15.6 97 97 N N/A 30.04 1017 10 16.0934 N/A
11:53 pm 23:53 Clear 59 15 59 15 100 100 N N/A 30.04 1017 7 11.26538 N/A

Powered by AerisWeather